Regional Weather Roundup
Issued by NWS Binghamton, NY

Home | Current Version | Previous Version | Text Only | Print | Product List | Glossary On
Versions: 1 2 3 4 5 6 7 8 9 10 11 12 13 14 15 16 17 18 19 20 21 22 23 24 25 26 27 28 29 30 31 32 33 34 35 36 37 38 39 40 41 42 43 44 45 46 47 48 49 50
000
ASUS41 KBGM 231010
RWRBGM

REGIONAL WEATHER ROUNDUP
NATIONAL WEATHER SERVICE BINGHAMTON NY
600 AM EDT THU MAR 23 2017

Note: "fair" indicates few or no clouds below 12,000 feet with no
significant weather and/or obstructions to visibility.

* = Station(s) that does not report precipitation, such as rain,
snow, etc, also no thunder or fog.

NYZ009-015>018-022>025-036-037-044>046-055>057-062-231100
...Central New York...

CITY           SKY/WX    TMP DP  RH WIND       PRES   REMARKS
Binghamton     CLEAR     12   6  77 NW6       30.45R WCI   3
Cortland       FAIR       7   5  92 CALM      30.50R
Dansville      CLEAR     14   8  77 S3        30.56R
Elmira         CLEAR     14   5  67 CALM      30.53R
Seneca Falls   SUNNY     18  10  73 W5        30.57R WCI  11
Ithaca         CLEAR      6   2  83 CALM      30.52R
Hamilton       CLEAR      1  -2  85 CALM      30.49R
Monticello     CLEAR     12   1  62 W6        30.44R WCI   3
Norwich        CLEAR      1   0  92 CALM      30.52R
Oneonta        CLEAR      7   0  72 CALM      30.42R
Penn Yan       CLEAR     18   7  62 W3        30.52R
Rome           CLEAR      3  -1  83 CALM      30.56R
Sidney         CLEAR      5   3  92 SW3       30.51R
Syracuse       PTCLDY    12   6  77 CALM      30.55R
$$

PAZ038>040-043-044-047-048-072-231100
...Northeast Pennsylvania...

CITY           SKY/WX    TMP DP  RH WIND       PRES   REMARKS
Hazleton       CLEAR     16   5  62 NW7       30.48R WCI   6
Scranton       CLEAR     18   5  57 NW9       30.51R WCI   7
$$
&&
KEY
WCI = Wind Chill Index
VSB = Visibility
HX  = Heat Index
$$



USA.gov is the U.S. government's official web portal to all federal, state and local government web resources and services.